星链-33683 (STARLINK-33683)

导读

STARLINK-33683是美国于2025年4月14日发射的Starlink星链互联网卫星,星链计划由SpaceX推进,旨在打造全球覆盖的低轨卫星互联网星座,为全球偏远地区、海洋、航空等场景提供高速低时延互联网接入服务。该卫星入轨后将加入近地轨道的星链星座网络,进一步完善星链的全球覆盖能力与服务性能。

基本信息
目录编号:
63573
目录名称:
STARLINK-33683
国际标识:
2025-076E
轨道中心:
EARTH
卫星名称:
星链-33683
卫星全名:
星链-33683 (STARLINK-33683)
卫星状态:
在轨 (已飞行426 天)
发射日期:
2025-04-14 UTC
国别 :
美国 (US)
星等 :
--
轨道信息
数据来源 国际轨道数据
星历时间: 2026-06-13T23:45:52+0800
14小时前
查看轨道信息
半长轴: 6861.107km
偏心率: 0.0003286
轨道倾角: 43.003°
近地点辐角 266.555°
升交点赤经 140.045°
平近点角 93.492°
近地点: 480.715km
远地点: 485.225km
周期: 94.265分钟
每日圈数: 15.276067
详细信息
固有亮度:
5
最大亮度:
2.5
卫星平台:
Starlink V1.0
覆盖范围:
全球
运营商:
太空探索技术公司
运营商所在国:
美国
制造商(研发单位):
太空探索技术公司
制造商所在国:
美国
使用方式:
暂无
卫星简介
Starlink 计划是 SpaceX 推出的全球卫星互联网项目,通过发射低轨道卫星,为全球尤其是偏远地区提供高速、低延迟的互联网服务。自 2019 年起,Starlink 已部署数千颗卫星,旨在缩小全球数字鸿沟,推动互联网普及。该项目还为军事、航空等行业提供通信支持,带来广泛经济效益。
2D轨道图
3D轨道图
轨道高度分析图
轨道倾角分析图
轨道综合分析图
查看轨道综合分析图